Year,Month,Day,Hour,Minute,Value (Times are PST for temperature in C)
2009,01,19,00,00,2.20
2009,01,19,00,01,2.20
2009,01,19,00,02,2.10
2009,01,19,00,03,2.10
2009,01,19,00,04,2.20
2009,01,19,00,05,2.20
2009,01,19,00,06,2.20
2009,01,19,00,07,2.30
2009,01,19,00,08,2.30
2009,01,19,00,09,2.30
2009,01,19,00,10,2.30
2009,01,19,00,11,2.40
2009,01,19,00,12,2.40
2009,01,19,00,13,2.40
2009,01,19,00,14,2.40
2009,01,19,00,15,2.40
2009,01,19,00,16,2.40
2009,01,19,00,17,2.40
2009,01,19,00,18,2.40
2009,01,19,00,19,2.40
2009,01,19,00,20,2.40
2009,01,19,00,21,2.40
2009,01,19,00,22,2.40
2009,01,19,00,23,2.40
2009,01,19,00,24,2.40
2009,01,19,00,25,2.40
2009,01,19,00,26,2.40
2009,01,19,00,27,2.40
2009,01,19,00,28,2.40
2009,01,19,00,29,2.40
2009,01,19,00,30,2.40
2009,01,19,00,31,2.40
2009,01,19,00,32,2.40
2009,01,19,00,33,2.40
2009,01,19,00,34,2.50
2009,01,19,00,35,2.50
2009,01,19,00,36,2.60
2009,01,19,00,37,2.60
2009,01,19,00,38,2.60
2009,01,19,00,39,2.70
2009,01,19,00,40,2.70
2009,01,19,00,41,2.70
2009,01,19,00,42,2.70
2009,01,19,00,43,2.70
2009,01,19,00,44,2.70
2009,01,19,00,45,2.70
2009,01,19,00,46,2.70
2009,01,19,00,47,2.70
2009,01,19,00,48,2.70
2009,01,19,00,49,2.70
2009,01,19,00,50,2.70
2009,01,19,00,51,2.70
2009,01,19,00,52,2.70
2009,01,19,00,53,2.60
2009,01,19,00,54,2.60
2009,01,19,00,55,2.60
2009,01,19,00,56,2.60
2009,01,19,00,57,2.50
2009,01,19,00,58,2.50
2009,01,19,00,59,2.50
2009,01,19,01,00,2.40
2009,01,19,01,01,2.40
2009,01,19,01,02,2.40
2009,01,19,01,03,2.40
2009,01,19,01,04,2.50
2009,01,19,01,05,2.50
2009,01,19,01,06,2.50
2009,01,19,01,07,2.50
2009,01,19,01,08,2.40
2009,01,19,01,09,2.40
2009,01,19,01,10,2.30
2009,01,19,01,11,2.30
2009,01,19,01,12,2.30
2009,01,19,01,13,2.30
2009,01,19,01,14,2.30
2009,01,19,01,15,2.30
2009,01,19,01,16,2.30
2009,01,19,01,17,2.30
2009,01,19,01,18,2.30
2009,01,19,01,19,2.30
2009,01,19,01,20,2.30
2009,01,19,01,21,2.30
2009,01,19,01,22,2.30
2009,01,19,01,23,2.30
2009,01,19,01,24,2.30
2009,01,19,01,25,2.30
2009,01,19,01,26,2.30
2009,01,19,01,27,2.30
2009,01,19,01,28,2.30
2009,01,19,01,29,2.30
2009,01,19,01,30,2.30
2009,01,19,01,31,2.30
2009,01,19,01,32,2.40
2009,01,19,01,33,2.40
2009,01,19,01,34,2.40
2009,01,19,01,35,2.40
2009,01,19,01,36,2.40
2009,01,19,01,37,2.40
2009,01,19,01,38,2.40
2009,01,19,01,39,2.40
2009,01,19,01,40,2.40
2009,01,19,01,41,2.40
2009,01,19,01,42,2.40
2009,01,19,01,43,2.40
2009,01,19,01,44,2.40
2009,01,19,01,45,2.40
2009,01,19,01,46,2.40
2009,01,19,01,47,2.30
2009,01,19,01,48,2.30
2009,01,19,01,49,2.30
2009,01,19,01,50,2.30
2009,01,19,01,51,2.30
2009,01,19,01,52,2.30
2009,01,19,01,53,2.30
2009,01,19,01,54,2.30
2009,01,19,01,55,2.30
2009,01,19,01,56,2.30
2009,01,19,01,57,2.30
2009,01,19,01,58,2.30
2009,01,19,01,59,2.20
2009,01,19,02,00,2.20
2009,01,19,02,01,2.30
2009,01,19,02,02,2.30
2009,01,19,02,03,2.30
2009,01,19,02,04,2.30
2009,01,19,02,05,2.30
2009,01,19,02,06,2.30
2009,01,19,02,07,2.30
2009,01,19,02,08,2.30
2009,01,19,02,09,2.20
2009,01,19,02,10,2.20
2009,01,19,02,11,2.20
2009,01,19,02,12,2.20
2009,01,19,02,13,2.30
2009,01,19,02,14,2.40
2009,01,19,02,15,2.40
2009,01,19,02,16,2.40
2009,01,19,02,17,2.40
2009,01,19,02,18,2.40
2009,01,19,02,19,2.30
2009,01,19,02,20,2.30
2009,01,19,02,21,2.20
2009,01,19,02,22,2.10
2009,01,19,02,23,2.00
2009,01,19,02,24,1.90
2009,01,19,02,25,1.80
2009,01,19,02,26,1.80
2009,01,19,02,27,1.70
2009,01,19,02,28,1.70
2009,01,19,02,29,1.70
2009,01,19,02,30,1.70
2009,01,19,02,31,1.70
2009,01,19,02,32,1.70
2009,01,19,02,33,1.70
2009,01,19,02,34,1.70
2009,01,19,02,35,1.70
2009,01,19,02,36,1.70
2009,01,19,02,37,1.70
2009,01,19,02,38,1.60
2009,01,19,02,39,1.60
2009,01,19,02,40,1.60
2009,01,19,02,41,1.60
2009,01,19,02,42,1.60
2009,01,19,02,43,1.60
2009,01,19,02,44,1.70
2009,01,19,02,45,1.70
2009,01,19,02,46,1.80
2009,01,19,02,47,1.80
2009,01,19,02,48,1.80
2009,01,19,02,49,1.80
2009,01,19,02,50,1.80
2009,01,19,02,51,1.80
2009,01,19,02,52,1.80
2009,01,19,02,53,1.80
2009,01,19,02,54,1.80
2009,01,19,02,55,1.80
2009,01,19,02,56,1.80
2009,01,19,02,57,1.80
2009,01,19,02,58,1.80
2009,01,19,02,59,1.80
2009,01,19,03,00,1.70
2009,01,19,03,01,1.70
2009,01,19,03,02,1.70
2009,01,19,03,03,1.70
2009,01,19,03,04,1.70
2009,01,19,03,05,1.70
2009,01,19,03,06,1.80
2009,01,19,03,07,1.80
2009,01,19,03,08,1.80
2009,01,19,03,09,1.90
2009,01,19,03,10,1.80
2009,01,19,03,11,1.80
2009,01,19,03,12,1.80
2009,01,19,03,13,1.80
2009,01,19,03,14,1.70
2009,01,19,03,15,1.70
2009,01,19,03,16,1.70
2009,01,19,03,17,1.70
2009,01,19,03,18,1.70
2009,01,19,03,19,1.60
2009,01,19,03,20,1.60
2009,01,19,03,21,1.60
2009,01,19,03,22,1.50
2009,01,19,03,23,1.50
2009,01,19,03,24,1.60
2009,01,19,03,25,1.70
2009,01,19,03,26,1.70
2009,01,19,03,27,1.70
2009,01,19,03,28,1.60
2009,01,19,03,29,1.60
2009,01,19,03,30,1.50
2009,01,19,03,31,1.40
2009,01,19,03,32,1.40
2009,01,19,03,33,1.30
2009,01,19,03,34,1.30
2009,01,19,03,35,1.30
2009,01,19,03,36,1.30
2009,01,19,03,37,1.30
2009,01,19,03,38,1.30
2009,01,19,03,39,1.30
2009,01,19,03,40,1.30
2009,01,19,03,41,1.30
2009,01,19,03,42,1.30
2009,01,19,03,43,1.30
2009,01,19,03,44,1.30
2009,01,19,03,45,1.30
2009,01,19,03,46,1.30
2009,01,19,03,47,1.30
2009,01,19,03,48,1.30
2009,01,19,03,49,1.30
2009,01,19,03,50,1.40
2009,01,19,03,51,1.40
2009,01,19,03,52,1.50
2009,01,19,03,53,1.50
2009,01,19,03,54,1.50
2009,01,19,03,55,1.60
2009,01,19,03,56,1.60
2009,01,19,03,57,1.60
2009,01,19,03,58,1.60
2009,01,19,03,59,1.50
2009,01,19,04,00,1.50
2009,01,19,04,01,1.50
2009,01,19,04,02,1.50
2009,01,19,04,03,1.50
2009,01,19,04,04,1.40
2009,01,19,04,05,1.40
2009,01,19,04,06,1.40
2009,01,19,04,07,1.30
2009,01,19,04,08,1.30
2009,01,19,04,09,1.30
2009,01,19,04,10,1.30
2009,01,19,04,11,1.30
2009,01,19,04,12,1.30
2009,01,19,04,13,1.30
2009,01,19,04,14,1.30
2009,01,19,04,15,1.20
2009,01,19,04,16,1.10
2009,01,19,04,17,1.10
2009,01,19,04,18,1.10
2009,01,19,04,19,1.10
2009,01,19,04,20,1.00
2009,01,19,04,21,1.00
2009,01,19,04,22,1.10
2009,01,19,04,23,1.10
2009,01,19,04,24,1.10
2009,01,19,04,25,1.00
2009,01,19,04,26,1.00
2009,01,19,04,27,1.00
2009,01,19,04,28,1.00
2009,01,19,04,29,1.00
2009,01,19,04,30,1.00
2009,01,19,04,31,0.90
2009,01,19,04,32,0.90
2009,01,19,04,33,0.80
2009,01,19,04,34,0.80
2009,01,19,04,35,0.80
2009,01,19,04,36,0.80
2009,01,19,04,37,0.80
2009,01,19,04,38,0.80
2009,01,19,04,39,0.80
2009,01,19,04,40,0.80
2009,01,19,04,41,0.90
2009,01,19,04,42,0.90
2009,01,19,04,43,0.90
2009,01,19,04,44,0.90
2009,01,19,04,45,1.00
2009,01,19,04,46,1.10
2009,01,19,04,47,1.20
2009,01,19,04,48,1.20
2009,01,19,04,49,1.20
2009,01,19,04,50,1.30
2009,01,19,04,51,1.30
2009,01,19,04,52,1.30
2009,01,19,04,53,1.30
2009,01,19,04,54,1.30
2009,01,19,04,55,1.30
2009,01,19,04,56,1.30
2009,01,19,04,57,1.30
2009,01,19,04,58,1.30
2009,01,19,04,59,1.30
2009,01,19,05,00,1.30
2009,01,19,05,01,1.30
2009,01,19,05,02,1.20
2009,01,19,05,03,1.20
2009,01,19,05,04,1.10
2009,01,19,05,05,1.00
2009,01,19,05,06,1.00
2009,01,19,05,07,0.90
2009,01,19,05,08,0.90
2009,01,19,05,09,0.90
2009,01,19,05,10,0.90
2009,01,19,05,11,0.80
2009,01,19,05,12,0.80
2009,01,19,05,13,0.80
2009,01,19,05,14,0.80
2009,01,19,05,15,0.80
2009,01,19,05,16,0.80
2009,01,19,05,17,0.80
2009,01,19,05,18,0.80
2009,01,19,05,19,0.80
2009,01,19,05,20,0.90
2009,01,19,05,21,0.90
2009,01,19,05,22,0.90
2009,01,19,05,23,0.90
2009,01,19,05,24,0.90
2009,01,19,05,25,1.00
2009,01,19,05,26,1.00
2009,01,19,05,27,1.00
2009,01,19,05,28,1.00
2009,01,19,05,29,1.00
2009,01,19,05,30,1.00
2009,01,19,05,31,1.00
2009,01,19,05,32,0.90
2009,01,19,05,33,0.90
2009,01,19,05,34,0.90
2009,01,19,05,35,1.00
2009,01,19,05,36,1.00
2009,01,19,05,37,1.10
2009,01,19,05,38,1.10
2009,01,19,05,39,1.10
2009,01,19,05,40,1.10
2009,01,19,05,41,1.10
2009,01,19,05,42,1.10
2009,01,19,05,43,1.10
2009,01,19,05,44,1.10
2009,01,19,05,45,1.20
2009,01,19,05,46,1.20
2009,01,19,05,47,1.30
2009,01,19,05,48,1.30
2009,01,19,05,49,1.30
2009,01,19,05,50,1.30
2009,01,19,05,51,1.30
2009,01,19,05,52,1.30
2009,01,19,05,53,1.30
2009,01,19,05,54,1.30
2009,01,19,05,55,1.20
2009,01,19,05,56,1.20
2009,01,19,05,57,1.20
2009,01,19,05,58,1.20
2009,01,19,05,59,1.20
2009,01,19,06,00,1.20
2009,01,19,06,01,1.20
2009,01,19,06,02,1.10
2009,01,19,06,03,1.10
2009,01,19,06,04,1.00
2009,01,19,06,05,1.00
2009,01,19,06,06,1.00
2009,01,19,06,07,0.90
2009,01,19,06,08,0.90
2009,01,19,06,09,0.90
2009,01,19,06,10,0.90
2009,01,19,06,11,0.90
2009,01,19,06,12,0.90
2009,01,19,06,13,0.90
2009,01,19,06,14,0.90
2009,01,19,06,15,0.90
2009,01,19,06,16,0.90
2009,01,19,06,17,1.00
2009,01,19,06,18,1.00
2009,01,19,06,19,1.00
2009,01,19,06,20,1.00
2009,01,19,06,21,1.00
2009,01,19,06,22,1.00
2009,01,19,06,23,1.00
2009,01,19,06,24,1.00
2009,01,19,06,25,1.10
2009,01,19,06,26,1.10
2009,01,19,06,27,1.10
2009,01,19,06,28,1.10
2009,01,19,06,29,1.10
2009,01,19,06,30,1.10
2009,01,19,06,31,1.10
2009,01,19,06,32,1.10
2009,01,19,06,33,1.10
2009,01,19,06,34,1.10
2009,01,19,06,35,1.10
2009,01,19,06,36,1.00
2009,01,19,06,37,1.00
2009,01,19,06,38,0.90
2009,01,19,06,39,0.90
2009,01,19,06,40,0.90
2009,01,19,06,41,0.80
2009,01,19,06,42,0.80
2009,01,19,06,43,0.80
2009,01,19,06,44,0.80
2009,01,19,06,45,0.80
2009,01,19,06,46,0.80
2009,01,19,06,47,0.80
2009,01,19,06,48,0.80
2009,01,19,06,49,0.70
2009,01,19,06,50,0.70
2009,01,19,06,51,0.70
2009,01,19,06,52,0.70
2009,01,19,06,53,0.70
2009,01,19,06,54,0.70
2009,01,19,06,55,0.70
2009,01,19,06,56,0.70
2009,01,19,06,57,0.60
2009,01,19,06,58,0.60
2009,01,19,06,59,0.60
2009,01,19,07,00,0.60
2009,01,19,07,01,0.70
2009,01,19,07,02,0.70
2009,01,19,07,03,0.70
2009,01,19,07,04,0.60
2009,01,19,07,05,0.60
2009,01,19,07,06,0.60
2009,01,19,07,07,0.60
2009,01,19,07,08,0.60
2009,01,19,07,09,0.60
2009,01,19,07,10,0.50
2009,01,19,07,11,0.50
2009,01,19,07,12,0.50
2009,01,19,07,13,0.40
2009,01,19,07,14,0.40
2009,01,19,07,15,0.40
2009,01,19,07,16,0.40
2009,01,19,07,17,0.40
2009,01,19,07,18,0.40
2009,01,19,07,19,0.40
2009,01,19,07,20,0.40
2009,01,19,07,21,0.40
2009,01,19,07,22,0.40
2009,01,19,07,23,0.40
2009,01,19,07,24,0.40
2009,01,19,07,25,0.40
2009,01,19,07,26,0.40
2009,01,19,07,27,0.40
2009,01,19,07,28,0.40
2009,01,19,07,29,0.30
2009,01,19,07,30,0.30
2009,01,19,07,31,0.30
2009,01,19,07,32,0.30
2009,01,19,07,33,0.30
2009,01,19,07,34,0.30
2009,01,19,07,35,0.30
2009,01,19,07,36,0.30
2009,01,19,07,37,0.30
2009,01,19,07,38,0.30
2009,01,19,07,39,0.30
2009,01,19,07,40,0.30
2009,01,19,07,41,0.30
2009,01,19,07,42,0.30
2009,01,19,07,43,0.30
2009,01,19,07,44,0.30
2009,01,19,07,45,0.30
2009,01,19,07,46,0.30
2009,01,19,07,47,0.30
2009,01,19,07,48,0.30
2009,01,19,07,49,0.30
2009,01,19,07,50,0.30
2009,01,19,07,51,0.20
2009,01,19,07,52,0.20
2009,01,19,07,53,0.20
2009,01,19,07,54,0.20
2009,01,19,07,55,0.10
2009,01,19,07,56,0.10
2009,01,19,07,57,0.10
2009,01,19,07,58,0.20
2009,01,19,07,59,0.20
2009,01,19,08,00,0.20
2009,01,19,08,01,0.20
2009,01,19,08,02,0.20
2009,01,19,08,03,0.30
2009,01,19,08,04,0.30
2009,01,19,08,05,0.30
2009,01,19,08,06,0.30
2009,01,19,08,07,0.30
2009,01,19,08,08,0.30
2009,01,19,08,09,0.30
2009,01,19,08,10,0.30
2009,01,19,08,11,0.40
2009,01,19,08,12,0.40
2009,01,19,08,13,0.40
2009,01,19,08,14,0.40
2009,01,19,08,15,0.40
2009,01,19,08,16,0.40
2009,01,19,08,17,0.40
2009,01,19,08,18,0.40
2009,01,19,08,19,0.40
2009,01,19,08,20,0.40
2009,01,19,08,21,0.40
2009,01,19,08,22,0.40
2009,01,19,08,23,0.40
2009,01,19,08,24,0.30
2009,01,19,08,25,0.30
2009,01,19,08,26,0.30
2009,01,19,08,27,0.30
2009,01,19,08,28,0.30
2009,01,19,08,29,0.40
2009,01,19,08,30,0.30
2009,01,19,08,31,0.30
2009,01,19,08,32,0.30
2009,01,19,08,33,0.30
2009,01,19,08,34,0.30
2009,01,19,08,35,0.30
2009,01,19,08,36,0.30
2009,01,19,08,37,0.30
2009,01,19,08,38,0.30
2009,01,19,08,39,0.40
2009,01,19,08,40,0.40
2009,01,19,08,41,0.40
2009,01,19,08,42,0.40
2009,01,19,08,43,0.50
2009,01,19,08,44,0.50
2009,01,19,08,45,0.60
2009,01,19,08,46,0.60
2009,01,19,08,47,0.60
2009,01,19,08,48,0.70
2009,01,19,08,49,0.80
2009,01,19,08,50,0.80
2009,01,19,08,51,0.80
2009,01,19,08,52,0.80
2009,01,19,08,53,0.90
2009,01,19,08,54,0.90
2009,01,19,08,55,0.90
2009,01,19,08,56,0.90
2009,01,19,08,57,0.90
2009,01,19,08,58,0.90
2009,01,19,08,59,1.00
2009,01,19,09,00,1.00
2009,01,19,09,01,1.10
2009,01,19,09,02,1.10
2009,01,19,09,03,1.10
2009,01,19,09,04,1.20
2009,01,19,09,05,1.20
2009,01,19,09,06,1.30
2009,01,19,09,07,1.30
2009,01,19,09,08,1.30
2009,01,19,09,09,1.30
2009,01,19,09,10,1.40
2009,01,19,09,11,1.40
2009,01,19,09,12,1.50
2009,01,19,09,13,1.50
2009,01,19,09,14,1.60
2009,01,19,09,15,1.60
2009,01,19,09,16,1.60
2009,01,19,09,17,1.60
2009,01,19,09,18,1.60
2009,01,19,09,19,1.70
2009,01,19,09,20,1.80
2009,01,19,09,21,1.80
2009,01,19,09,22,1.80
2009,01,19,09,23,1.90
2009,01,19,09,24,2.00
2009,01,19,09,25,2.00
2009,01,19,09,26,2.10
2009,01,19,09,27,2.20
2009,01,19,09,28,2.30
2009,01,19,09,29,2.40
2009,01,19,09,30,2.40
2009,01,19,09,31,2.50
2009,01,19,09,32,2.60
2009,01,19,09,33,2.60
2009,01,19,09,34,2.70
2009,01,19,09,35,2.80
2009,01,19,09,36,2.80
2009,01,19,09,37,2.90
2009,01,19,09,38,2.90
2009,01,19,09,39,2.90
2009,01,19,09,40,3.00
2009,01,19,09,41,3.00
2009,01,19,09,42,3.10
2009,01,19,09,43,3.20
2009,01,19,09,44,3.20
2009,01,19,09,45,3.30
2009,01,19,09,46,3.30
2009,01,19,09,47,3.40
2009,01,19,09,48,3.40
2009,01,19,09,49,3.40
2009,01,19,09,50,3.40
2009,01,19,09,51,3.50
2009,01,19,09,52,3.50
2009,01,19,09,53,3.60
2009,01,19,09,54,3.60
2009,01,19,09,55,3.60
2009,01,19,09,56,3.70
2009,01,19,09,57,3.70
2009,01,19,09,58,3.70
2009,01,19,09,59,3.90
2009,01,19,10,00,4.00
2009,01,19,10,01,4.20
2009,01,19,10,02,4.40
2009,01,19,10,03,4.50
2009,01,19,10,04,4.70
2009,01,19,10,05,4.80
2009,01,19,10,06,4.80
2009,01,19,10,07,4.90
2009,01,19,10,08,5.00
2009,01,19,10,09,5.10
2009,01,19,10,10,5.30
2009,01,19,10,11,5.50
2009,01,19,10,12,5.70
2009,01,19,10,13,5.90
2009,01,19,10,14,6.00
2009,01,19,10,15,6.20
2009,01,19,10,16,6.50
2009,01,19,10,17,6.70
2009,01,19,10,18,6.90
2009,01,19,10,19,7.00
2009,01,19,10,20,7.20
2009,01,19,10,21,7.30
2009,01,19,10,22,7.40
2009,01,19,10,23,7.50
2009,01,19,10,24,7.70
2009,01,19,10,25,7.80
2009,01,19,10,26,7.90
2009,01,19,10,27,8.00
2009,01,19,10,28,8.10
2009,01,19,10,29,8.20
2009,01,19,10,30,8.30
2009,01,19,10,31,8.30
2009,01,19,10,32,8.40
2009,01,19,10,33,8.50
2009,01,19,10,34,8.50
2009,01,19,10,35,8.60
2009,01,19,10,36,8.60
2009,01,19,10,37,8.70
2009,01,19,10,38,8.70
2009,01,19,10,39,8.70
2009,01,19,10,40,8.70
2009,01,19,10,41,8.80
2009,01,19,10,42,8.80
2009,01,19,10,43,8.90
2009,01,19,10,44,8.90
2009,01,19,10,45,8.90
2009,01,19,10,46,9.00
2009,01,19,10,47,9.00
2009,01,19,10,48,9.00
2009,01,19,10,49,9.10
2009,01,19,10,50,9.20
2009,01,19,10,51,9.30
2009,01,19,10,52,9.30
2009,01,19,10,53,9.40
2009,01,19,10,54,9.50
2009,01,19,10,55,9.50
2009,01,19,10,56,9.60
2009,01,19,10,57,9.60
2009,01,19,10,58,9.60
2009,01,19,10,59,9.70
2009,01,19,11,00,9.70
2009,01,19,11,01,9.70
2009,01,19,11,02,9.70
2009,01,19,11,03,9.80
2009,01,19,11,04,9.80
2009,01,19,11,05,9.80
2009,01,19,11,06,9.80
2009,01,19,11,07,9.80
2009,01,19,11,08,9.80
2009,01,19,11,09,9.80
2009,01,19,11,10,9.80
2009,01,19,11,11,9.80
2009,01,19,11,12,9.90
2009,01,19,11,13,9.90
2009,01,19,11,14,9.90
2009,01,19,11,15,9.90
2009,01,19,11,16,9.90
2009,01,19,11,17,9.90
2009,01,19,11,18,10.00
2009,01,19,11,19,10.00
2009,01,19,11,20,10.10
2009,01,19,11,21,10.10
2009,01,19,11,22,10.10
2009,01,19,11,23,10.20
2009,01,19,11,24,10.20
2009,01,19,11,25,10.20
2009,01,19,11,26,10.30
2009,01,19,11,27,10.30
2009,01,19,11,28,10.30
2009,01,19,11,29,10.30
2009,01,19,11,30,10.30
2009,01,19,11,31,10.30
2009,01,19,11,32,10.30
2009,01,19,11,33,10.40
2009,01,19,11,34,10.40
2009,01,19,11,35,10.40
2009,01,19,11,36,10.40
2009,01,19,11,37,10.50
2009,01,19,11,38,10.50
2009,01,19,11,39,10.60
2009,01,19,11,40,10.60
2009,01,19,11,41,10.60
2009,01,19,11,42,10.70
2009,01,19,11,43,10.70
2009,01,19,11,44,10.70
2009,01,19,11,45,10.70
2009,01,19,11,46,10.70
2009,01,19,11,47,10.80
2009,01,19,11,48,10.80
2009,01,19,11,49,10.80
2009,01,19,11,50,10.80
2009,01,19,11,51,10.80
2009,01,19,11,52,10.80
2009,01,19,11,53,10.90
2009,01,19,11,54,10.90
2009,01,19,11,55,10.90
2009,01,19,11,56,11.00
2009,01,19,11,57,11.00
2009,01,19,11,58,11.10
2009,01,19,11,59,11.10
2009,01,19,12,00,11.20
2009,01,19,12,01,11.20
2009,01,19,12,02,11.20
2009,01,19,12,03,11.20
2009,01,19,12,04,11.20
2009,01,19,12,05,11.20
2009,01,19,12,06,11.20
2009,01,19,12,07,11.20
2009,01,19,12,08,11.30
2009,01,19,12,09,11.30
2009,01,19,12,10,11.30
2009,01,19,12,11,11.30
2009,01,19,12,12,11.30
2009,01,19,12,13,11.30
2009,01,19,12,14,11.30
2009,01,19,12,15,11.30
2009,01,19,12,16,11.30
2009,01,19,12,17,11.30
2009,01,19,12,18,11.30
2009,01,19,12,19,11.30
2009,01,19,12,20,11.30
2009,01,19,12,21,11.30
2009,01,19,12,22,11.30
2009,01,19,12,23,11.30
2009,01,19,12,24,11.40
2009,01,19,12,25,11.40
2009,01,19,12,26,11.40
2009,01,19,12,27,11.50
2009,01,19,12,28,11.50
2009,01,19,12,29,11.60
2009,01,19,12,30,11.60
2009,01,19,12,31,11.60
2009,01,19,12,32,11.70
2009,01,19,12,33,11.70
2009,01,19,12,34,11.70
2009,01,19,12,35,11.70
2009,01,19,12,36,11.70
2009,01,19,12,37,11.70
2009,01,19,12,38,11.80
2009,01,19,12,39,11.80
2009,01,19,12,40,11.80
2009,01,19,12,41,11.80
2009,01,19,12,42,11.90
2009,01,19,12,43,11.90
2009,01,19,12,44,11.90
2009,01,19,12,45,11.90
2009,01,19,12,46,11.90
2009,01,19,12,47,11.90
2009,01,19,12,48,11.90
2009,01,19,12,49,12.00
2009,01,19,12,50,12.00
2009,01,19,12,51,12.10
2009,01,19,12,52,12.10
2009,01,19,12,53,12.10
2009,01,19,12,54,12.20
2009,01,19,12,55,12.20
2009,01,19,12,56,12.20
2009,01,19,12,57,12.20
2009,01,19,12,58,12.20
2009,01,19,12,59,12.20
2009,01,19,13,00,12.20
2009,01,19,13,01,12.20
2009,01,19,13,02,12.20
2009,01,19,13,03,12.20
2009,01,19,13,04,12.20
2009,01,19,13,05,12.20
2009,01,19,13,06,12.20
2009,01,19,13,07,12.20
2009,01,19,13,08,12.20
2009,01,19,13,09,12.20
2009,01,19,13,10,12.20
2009,01,19,13,11,12.20
2009,01,19,13,12,12.10
2009,01,19,13,13,12.10
2009,01,19,13,14,12.10
2009,01,19,13,15,12.10
2009,01,19,13,16,12.10
2009,01,19,13,17,12.10
2009,01,19,13,18,12.00
2009,01,19,13,19,12.10
2009,01,19,13,20,12.10
2009,01,19,13,21,12.10
2009,01,19,13,22,12.10
2009,01,19,13,23,12.10
2009,01,19,13,24,12.10
2009,01,19,13,25,12.10
2009,01,19,13,26,12.10
2009,01,19,13,27,12.10
2009,01,19,13,28,12.10
2009,01,19,13,29,12.10
2009,01,19,13,30,12.10
2009,01,19,13,31,12.20
2009,01,19,13,32,12.20
2009,01,19,13,33,12.20
2009,01,19,13,34,12.20
2009,01,19,13,35,12.20
2009,01,19,13,36,12.20
2009,01,19,13,37,12.20
2009,01,19,13,38,12.30
2009,01,19,13,39,12.30
2009,01,19,13,40,12.30
2009,01,19,13,41,12.30
2009,01,19,13,42,12.30
2009,01,19,13,43,12.30
2009,01,19,13,44,12.30
2009,01,19,13,45,12.30
2009,01,19,13,46,12.30
2009,01,19,13,47,12.30
2009,01,19,13,48,12.30
2009,01,19,13,49,12.30
2009,01,19,13,50,12.30
2009,01,19,13,51,12.30
2009,01,19,13,52,12.30
2009,01,19,13,53,12.30
2009,01,19,13,54,12.30
2009,01,19,13,55,12.30
2009,01,19,13,56,12.30
2009,01,19,13,57,12.30
2009,01,19,13,58,12.30
2009,01,19,13,59,12.30
2009,01,19,14,00,12.30
2009,01,19,14,01,12.30
2009,01,19,14,02,12.30
2009,01,19,14,03,12.30
2009,01,19,14,04,12.30
2009,01,19,14,05,12.30
2009,01,19,14,06,12.30
2009,01,19,14,07,12.30
2009,01,19,14,08,12.30
2009,01,19,14,09,12.30
2009,01,19,14,10,12.30
2009,01,19,14,11,12.30
2009,01,19,14,12,12.30
2009,01,19,14,13,12.30
2009,01,19,14,14,12.30
2009,01,19,14,15,12.30
2009,01,19,14,16,12.20
2009,01,19,14,17,12.20
2009,01,19,14,18,12.20
2009,01,19,14,19,12.20
2009,01,19,14,20,12.10
2009,01,19,14,21,12.10
2009,01,19,14,22,12.10
2009,01,19,14,23,12.10
2009,01,19,14,24,12.10
2009,01,19,14,25,12.10
2009,01,19,14,26,12.10
2009,01,19,14,27,12.10
2009,01,19,14,28,12.10
2009,01,19,14,29,12.10
2009,01,19,14,30,12.10
2009,01,19,14,31,12.10
2009,01,19,14,32,12.10
2009,01,19,14,33,12.20
2009,01,19,14,34,12.20
2009,01,19,14,35,12.20
2009,01,19,14,36,12.20
2009,01,19,14,37,12.20
2009,01,19,14,38,12.20
2009,01,19,14,39,12.20
2009,01,19,14,40,12.20
2009,01,19,14,41,12.20
2009,01,19,14,42,12.20
2009,01,19,14,43,12.20
2009,01,19,14,44,12.20
2009,01,19,14,45,12.20
2009,01,19,14,46,12.20
2009,01,19,14,47,12.20
2009,01,19,14,48,12.10
2009,01,19,14,49,12.10
2009,01,19,14,50,12.10
2009,01,19,14,51,12.10
2009,01,19,14,52,12.10
2009,01,19,14,53,12.10
2009,01,19,14,54,12.10
2009,01,19,14,55,12.10
2009,01,19,14,56,12.10
2009,01,19,14,57,12.10
2009,01,19,14,58,12.10
2009,01,19,14,59,12.10
2009,01,19,15,00,12.10
2009,01,19,15,01,12.10
2009,01,19,15,02,12.10
2009,01,19,15,03,12.10
2009,01,19,15,04,12.10
2009,01,19,15,05,12.10
2009,01,19,15,06,12.10
2009,01,19,15,07,12.10
2009,01,19,15,08,12.00
2009,01,19,15,09,12.00
2009,01,19,15,10,11.90
2009,01,19,15,11,11.90
2009,01,19,15,12,11.80
2009,01,19,15,13,11.80
2009,01,19,15,14,11.70
2009,01,19,15,15,11.60
2009,01,19,15,16,11.60
2009,01,19,15,17,11.50
2009,01,19,15,18,11.40
2009,01,19,15,19,11.40
2009,01,19,15,20,11.30
2009,01,19,15,21,11.30
2009,01,19,15,22,11.30
2009,01,19,15,23,11.20
2009,01,19,15,24,11.20
2009,01,19,15,25,11.20
2009,01,19,15,26,11.20
2009,01,19,15,27,11.20
2009,01,19,15,28,11.20
2009,01,19,15,29,11.20
2009,01,19,15,30,11.10
2009,01,19,15,31,11.10
2009,01,19,15,32,11.10
2009,01,19,15,33,11.10
2009,01,19,15,34,11.00
2009,01,19,15,35,11.00
2009,01,19,15,36,10.90
2009,01,19,15,37,10.90
2009,01,19,15,38,10.80
2009,01,19,15,39,10.80
2009,01,19,15,40,10.80
2009,01,19,15,41,10.80
2009,01,19,15,42,10.70
2009,01,19,15,43,10.70
2009,01,19,15,44,10.60
2009,01,19,15,45,10.60
2009,01,19,15,46,10.50
2009,01,19,15,47,10.40
2009,01,19,15,48,10.30
2009,01,19,15,49,10.30
2009,01,19,15,50,10.30
2009,01,19,15,51,10.30
2009,01,19,15,52,10.30
2009,01,19,15,53,10.30
2009,01,19,15,54,10.30
2009,01,19,15,55,10.30
2009,01,19,15,56,10.20
2009,01,19,15,57,10.20
2009,01,19,15,58,10.20
2009,01,19,15,59,10.20
2009,01,19,16,00,10.10
2009,01,19,16,01,10.10
2009,01,19,16,02,10.10
2009,01,19,16,03,10.00
2009,01,19,16,04,10.00
2009,01,19,16,05,9.90
2009,01,19,16,06,9.90
2009,01,19,16,07,9.80
2009,01,19,16,08,9.80
2009,01,19,16,09,9.70
2009,01,19,16,10,9.70
2009,01,19,16,11,9.60
2009,01,19,16,12,9.60
2009,01,19,16,13,9.60
2009,01,19,16,14,9.50
2009,01,19,16,15,9.40
2009,01,19,16,16,9.40
2009,01,19,16,17,9.30
2009,01,19,16,18,9.30
2009,01,19,16,19,9.20
2009,01,19,16,20,9.20
2009,01,19,16,21,9.20
2009,01,19,16,22,9.10
2009,01,19,16,23,9.10
2009,01,19,16,24,9.00
2009,01,19,16,25,8.90
2009,01,19,16,26,8.90
2009,01,19,16,27,8.90
2009,01,19,16,28,8.80
2009,01,19,16,29,8.80
2009,01,19,16,30,8.80
2009,01,19,16,31,8.70
2009,01,19,16,32,8.70
2009,01,19,16,33,8.60
2009,01,19,16,34,8.60
2009,01,19,16,35,8.50
2009,01,19,16,36,8.40
2009,01,19,16,37,8.30
2009,01,19,16,38,8.30
2009,01,19,16,39,8.20
2009,01,19,16,40,8.10
2009,01,19,16,41,8.00
2009,01,19,16,42,8.00
2009,01,19,16,43,7.90
2009,01,19,16,44,7.90
2009,01,19,16,45,7.80
2009,01,19,16,46,7.80
2009,01,19,16,47,7.70
2009,01,19,16,48,7.70
2009,01,19,16,49,7.60
2009,01,19,16,50,7.60
2009,01,19,16,51,7.50
2009,01,19,16,52,7.50
2009,01,19,16,53,7.40
2009,01,19,16,54,7.40
2009,01,19,16,55,7.40
2009,01,19,16,56,7.30
2009,01,19,16,57,7.30
2009,01,19,16,58,7.20
2009,01,19,16,59,7.20
2009,01,19,17,00,7.20
2009,01,19,17,01,7.10
2009,01,19,17,02,7.10
2009,01,19,17,03,7.10
2009,01,19,17,04,7.00
2009,01,19,17,05,7.00
2009,01,19,17,06,6.90
2009,01,19,17,07,6.90
2009,01,19,17,08,6.90
2009,01,19,17,09,6.80
2009,01,19,17,10,6.80
2009,01,19,17,11,6.80
2009,01,19,17,12,6.80
2009,01,19,17,13,6.80
2009,01,19,17,14,6.80
2009,01,19,17,15,6.80
2009,01,19,17,16,6.70
2009,01,19,17,17,6.70
2009,01,19,17,18,6.70
2009,01,19,17,19,6.70
2009,01,19,17,20,6.70
2009,01,19,17,21,6.60
2009,01,19,17,22,6.50
2009,01,19,17,23,6.50
2009,01,19,17,24,6.40
2009,01,19,17,25,6.40
2009,01,19,17,26,6.40
2009,01,19,17,27,6.30
2009,01,19,17,28,6.30
2009,01,19,17,29,6.30
2009,01,19,17,30,6.20
2009,01,19,17,31,6.20
2009,01,19,17,32,6.10
2009,01,19,17,33,6.10
2009,01,19,17,34,6.10
2009,01,19,17,35,6.10
2009,01,19,17,36,6.00
2009,01,19,17,37,6.00
2009,01,19,17,38,6.00
2009,01,19,17,39,6.00
2009,01,19,17,40,6.00
2009,01,19,17,41,6.00
2009,01,19,17,42,6.00
2009,01,19,17,43,5.90
2009,01,19,17,44,5.90
2009,01,19,17,45,5.90
2009,01,19,17,46,5.90
2009,01,19,17,47,5.80
2009,01,19,17,48,5.80
2009,01,19,17,49,5.80
2009,01,19,17,50,5.80
2009,01,19,17,51,5.80
2009,01,19,17,52,5.80
2009,01,19,17,53,5.80